EW1557 Weather Reports


time (UTC)temp
C
wind
direction
speed
KPH
gust
KPH
rain 1hr
cm
rain 24hr
cm
rain mn
cm
humidity
%
barometer
mb
20260510021544 20 342 0.0 0.0 0.00 0.28 0.13 1 1013.2
20260510020047 20 342 0.0 0.0 0.00 0.28 0.13 1 1013.1
20260510014544 20 342 0.0 0.0 0.00 0.28 0.13 1 1013.0
20260510013043 20 342 0.0 0.0 0.00 0.28 0.13 1 1012.7
20260510011552 20 342 0.0 0.0 0.00 0.28 0.13 1 1012.8
20260510010039 20 342 0.0 0.0 0.00 0.28 0.13 1 1012.7
20260510004537 20 342 0.0 0.0 0.00 0.28 0.13 1 1012.6
20260510003055 20 342 0.0 0.0 0.00 0.28 0.13 1 1012.4
20260510001529 20 342 0.0 0.0 0.00 0.28 0.13 1 1012.2
20260510000022 21 342 0.0 0.0 0.00 0.28 0.13 1 1012.3
20260509234527 21 338 0.0 0.0 0.00 0.28 0.13 1 1011.9
20260509233020 21 338 0.0 0.0 0.00 0.28 0.13 1 1012.0
20260509231508 21 338 0.0 0.0 0.00 0.28 0.13 1 1011.8
20260509230011 21 338 0.0 0.0 0.00 0.28 0.13 1 1011.6
20260509224600 21 338 0.0 0.0 0.00 0.28 0.13 1 1011.3
20260509223055 21 260 0.0 0.0 0.03 0.28 0.13 1 1011.5
20260509221551 21 213 0.0 0.0 0.03 0.28 0.13 1 1011.7
20260509220046 21 306 0.0 0.0 0.03 0.28 0.13 1 1011.8
20260509214542 21 306 0.0 0.0 0.03 0.28 0.13 1 1011.8
20260509213041 21 67 0.0 0.0 0.00 0.25 0.10 1 1011.9
20260509211538 21 67 0.0 0.0 0.03 0.25 0.10 1 1012.3
20260509210029 21 67 0.0 0.0 0.03 0.25 0.10 1 1012.1
20260509204525 22 67 0.0 0.0 0.03 0.25 0.10 1 1011.9
20260509203022 22 68 0.0 0.0 0.03 0.25 0.10 1 1012.2
20260509201517 22 68 0.0 0.0 0.00 0.23 0.08 1 1012.1
20260509200013 22 68 0.0 0.0 0.00 0.23 0.08 1 1012.2
20260509194511 22 68 0.0 0.0 0.03 0.23 0.08 1 1012.3
20260509193002 22 68 0.0 0.0 0.05 0.23 0.08 1 1012.3
20260509191558 23 217 0.0 0.0 0.05 0.23 0.08 1 1012.2
20260509190053 23 217 0.0 0.0 0.05 0.23 0.08 1 1012.1
20260509184550 23 217 0.0 0.0 0.03 0.20 0.05 1 1012.1
20260509183111 23 217 0.0 0.0 0.00 0.18 0.03 1 1012.0
20260509181554 24 281 0.0 0.0 0.00 0.18 0.03 1 1012.0
20260509180036 25 284 0.0 0.0 0.00 0.18 0.03 1 1012.2
20260509174535 25 250 0.0 0.0 0.00 0.18 0.03 1 1012.3
20260509173027 25 302 0.0 0.0 0.00 0.18 0.03 1 1012.4
20260509171525 24 260 0.0 0.0 0.00 0.18 0.03 1 1012.5
20260509170018 24 271 0.0 0.0 0.00 0.18 0.03 1 1012.6
20260509164513 23 240 0.0 3.2 0.00 0.18 0.03 1 1012.7
20260509163008 23 279 0.0 4.8 0.00 0.18 0.03 1 1012.9
20260509161504 22 265 0.0 8.0 0.00 0.18 0.03 1 1012.8
20260509160101 22 275 1.6 8.0 0.00 0.18 0.03 1 1012.8
20260509154558 21 290 0.0 0.0 0.00 0.18 0.03 1 1012.9
20260509153051 21 291 0.0 0.0 0.00 0.18 0.03 1 1013.3
20260509151547 21 303 0.0 0.0 0.00 0.18 0.03 1 1013.3
20260509150042 21 66 0.0 0.0 0.00 0.18 0.03 1 1013.4
20260509144540 21 66 0.0 0.0 0.00 0.18 0.03 1 1013.5
20260509143034 21 66 0.0 0.0 0.00 0.18 0.03 1 1013.6
20260509141529 21 66 0.0 0.0 0.00 0.18 0.03 1 1013.6
20260509140024 21 66 0.0 0.0 0.00 0.18 0.03 1 1013.3
20260509134520 20 66 0.0 0.0 0.00 0.18 0.03 1 1013.2
20260509133015 20 66 0.0 0.0 0.00 0.18 0.03 1 1013.1
20260509131511 19 66 0.0 0.0 0.00 0.18 0.03 1 1013.1
20260509130008 18 66 0.0 0.0 0.00 0.18 0.03 1 1013.3
20260509124502 18 66 0.0 0.0 0.00 0.18 0.03 1 1013.6
20260509123059 18 66 0.0 0.0 0.00 0.18 0.03 1 1013.4
20260509121553 17 66 0.0 0.0 0.00 0.18 0.03 1 1013.1
20260509120054 17 66 0.0 0.0 0.00 0.18 0.03 1 1012.9
20260509114545 16 66 0.0 0.0 0.00 0.18 0.03 1 1012.9
20260509113040 16 66 0.0 0.0 0.00 0.18 0.03 1 1012.8
20260509111536 16 66 0.0 0.0 0.00 0.18 0.03 1 1012.6
20260509110035 16 66 0.0 0.0 0.00 0.18 0.03 1 1012.5
20260509104536 16 66 0.0 0.0 0.00 0.18 0.03 1 1012.3
20260509103023 17 66 0.0 0.0 0.00 0.18 0.03 1 1012.3
20260509101519 17 66 0.0 0.0 0.00 0.18 0.03 1 1011.9
20260509100015 17 66 0.0 0.0 0.00 0.18 0.03 1 1011.7
20260509094511 17 66 0.0 0.0 0.00 0.18 0.03 1 1011.8
20260509093008 17 66 0.0 0.0 0.00 0.18 0.03 1 1011.6
20260509091504 17 66 0.0 0.0 0.00 0.18 0.03 1 1012.2
20260509084557 17 66 0.0 0.0 0.00 0.18 0.03 1 1012.0
20260509083051 17 66 0.0 0.0 0.00 0.18 0.03 1 1012.6
20260509081545 17 66 0.0 0.0 0.00 0.18 0.03 1 1011.9
20260509080050 17 66 0.0 0.0 0.00 0.18 0.03 1 1012.2
20260509074539 17 66 0.0 0.0 0.00 0.18 0.03 1 1012.6
20260509073038 17 66 0.0 0.0 0.00 0.18 0.03 1 1012.8
20260509071531 17 66 0.0 0.0 0.00 0.18 0.03 1 1012.3
20260509070027 17 66 0.0 0.0 0.00 0.18 0.03 1 1012.7
20260509064525 17 66 0.0 0.0 0.00 0.18 0.03 1 1012.6
20260509063018 18 66 0.0 0.0 0.00 0.18 0.03 1 1013.0
20260509061516 18 66 0.0 0.0 0.00 0.18 0.03 1 1013.0
20260509060009 18 66 0.0 0.0 0.00 0.18 0.03 1 1013.6
20260509054505 18 66 0.0 0.0 0.00 0.18 0.03 1 1013.3
20260509053108 18 66 0.0 0.0 0.00 0.18 0.03 1 1013.2
20260509051602 18 66 0.0 0.0 0.00 0.18 0.03 1 1013.4
20260509050056 18 66 0.0 0.0 0.00 0.18 0.03 1 1014.1
20260509044548 18 66 0.0 0.0 0.03 0.18 0.03 1 1014.4
20260509043042 18 66 0.0 0.0 0.05 0.18 0.03 1 1014.2
20260509041538 18 66 0.0 0.0 0.10 0.18 0.03 1 1014.2
20260509040037 18 66 0.0 0.0 0.13 0.18 0.03 1 1014.6
20260509034532 18 66 0.0 0.0 0.15 0.15 0.15 1 1014.0
20260509033032 18 66 0.0 0.0 0.13 0.13 0.13 1 1014.9
20260509031532 18 66 0.0 0.0 0.08 0.08 0.08 1 1015.2
20260509030026 18 66 0.0 0.0 0.03 0.03 0.03 1 1015.2
20260509024521 18 66 0.0 0.0 0.00 0.00 0.00 1 1015.6
20260509023016 18 66 0.0 0.0 0.00 0.00 0.00 1 1016.0